Regional Weather Roundup
Issued by NWS

Home | Current Version | Previous Version | Text Only | Print | Product List | Glossary On
Versions: 1 2 3 4 5 6 7 8 9 10 11 12 13 14 15 16 17 18 19 20 21 22 23 24 25 26 27
000
ASUS45 KREV 210710
RWRNV
NEVADA REGIONAL WEATHER ROUNDUP
NATIONAL WEATHER SERVICE RENO NV
1200 AM PDT MON APR 21 2014

NOTE: "FAIR" INDICATES FEW OR NO CLOUDS BELOW 12,000 FEET WITH NO
SIGNIFICANT WEATHER AND/OR OBSTRUCTIONS TO VISIBILITY.

NVZ001-003-004-210800-
WESTERN NEVADA

CITY           SKY/WX    TMP DP  RH WIND       PRES   REMARKS
RENO           PTCLDY    56  25  30 W5        30.18S
CARSON CITY    FAIR      50  19  29 CALM      30.19F
MINDEN         CLEAR     43  28  56 CALM      30.20S
SLIDE MTN        N/A     37  18  44 E16         N/A
PYRAMID LAKE     N/A     59 N/A N/A SE1         N/A
FALLON         CLEAR     49  20  31 NW3       30.14S
LOVELOCK       CLEAR     44   9  23 CALM      30.15S
HAWTHORNE      CLEAR     55  19  24 S5        30.16F
$$

NVZ002-CAZ072-073-210800-
NORTHERN AND CENTRAL SIERRA

CITY           SKY/WX    TMP DP  RH WIND       PRES   REMARKS
S. LAKE TAHOE  CLEAR     41  30  65 S5        30.24F
TRUCKEE        CLEAR     36  32  87 CALM      30.25S
SQUAW VLY 8000   N/A     41  32  70 CALM        N/A
SUSANVILLE     CLEAR     46  32  57 W6        30.16S
BLUE CANYON    CLEAR     54  33  45 NE5       30.22S
MAMMOTH LAKES  FAIR      45  19  36 W9        30.28S
BRIDGEPORT     FAIR      38  19  46 CALM      30.26S
$$

NVZ030-031-036-210800-
NORTHERN NEVADA

CITY           SKY/WX    TMP DP  RH WIND       PRES   REMARKS
ELKO           CLEAR     38  21  50 CALM      30.23R
WINNEMUCCA     CLEAR     43  16  33 E6        30.19S
WENDOVER       CLEAR     55  16  21 N15       30.21S
$$

NVZ035-037-210800-
CENTRAL NEVADA

CITY           SKY/WX    TMP DP  RH WIND       PRES   REMARKS
ELY            PTCLDY    44  21  40 CALM      30.24S
EUREKA           N/A     37  20  50 S3        30.24R
$$

NVZ013-014-210800-
SOUTH CENTRAL NEVADA

CITY           SKY/WX    TMP DP  RH WIND       PRES   REMARKS
TONOPAH        PTCLDY    53   8  16 N9        30.18R
$$

NVZ017-020-022-210800-
SOUTHERN NEVADA

CITY           SKY/WX    TMP DP  RH WIND       PRES   REMARKS
LAS VEGAS      CLEAR     78  28  16 S10       29.96R
N. LAS VEGAS   CLEAR     79  32  18 E5        29.98R
NELLIS AFB     CLEAR     76  34  21 SW7       29.97R
HENDERSON      HVY RAIN  72  29  20 S12       30.03R
MERCURY        CLEAR     63  26  24 NE6       30.05R
$$



USA.gov is the U.S. government's official web portal to all federal, state and local government web resources and services.